| time (UTC) | temp C | wind direction | speed KPH | gust KPH | rain 1hr cm | rain 24hr cm | rain mn cm | humidity % | barometer mb |
| 20260508073446 | 8 | 293 | 3.2 | 12.9 | 0.00 | 0.00 | 0.00 | 68 | 1002.5 |
| 20260508072935 | 8 | 293 | 6.4 | 12.9 | 0.00 | 0.00 | 0.00 | 68 | 1002.6 |
| 20260508072425 | 8 | 293 | 6.4 | 12.9 | 0.00 | 0.00 | 0.00 | 69 | 1002.7 |
| 20260508071916 | 8 | 270 | 6.4 | 12.9 | 0.00 | 0.00 | 0.00 | 69 | 1002.6 |
| 20260508071406 | 8 | 293 | 3.2 | 12.9 | 0.00 | 0.00 | 0.00 | 69 | 1002.5 |
| 20260508070856 | 9 | 270 | 3.2 | 12.9 | 0.00 | 0.00 | 0.00 | 70 | 1002.5 |
| 20260508070345 | 9 | 293 | 3.2 | 20.9 | 0.00 | 0.00 | 0.00 | 70 | 1002.5 |
| 20260508065325 | 9 | 293 | 3.2 | 12.9 | 0.00 | 0.00 | 0.00 | 72 | 1002.5 |
| 20260508064814 | 9 | 270 | 3.2 | 12.9 | 0.00 | 0.00 | 0.00 | 74 | 1002.6 |
| 20260508064305 | 9 | 293 | 4.8 | 17.7 | 0.00 | 0.00 | 0.00 | 75 | 1002.4 |
| 20260508063757 | 9 | 270 | 3.2 | 17.7 | 0.00 | 0.00 | 0.00 | 77 | 1002.5 |
| 20260508063245 | 9 | 293 | 4.8 | 14.5 | 0.00 | 0.00 | 0.00 | 78 | 1002.4 |
| 20260508062734 | 9 | 293 | 8.0 | 12.9 | 0.00 | 0.00 | 0.00 | 78 | 1002.4 |
| 20260508061204 | 9 | 293 | 6.4 | 14.5 | 0.00 | 0.00 | 0.00 | 78 | 1002.9 |
| 20260508060653 | 9 | 293 | 9.7 | 14.5 | 0.00 | 0.00 | 0.00 | 77 | 1002.8 |
| 20260508060144 | 9 | 293 | 3.2 | 12.9 | 0.00 | 0.00 | 0.00 | 76 | 1002.9 |
| 20260508055634 | 9 | 293 | 4.8 | 12.9 | 0.00 | 0.00 | 0.00 | 75 | 1003.1 |
| 20260508055124 | 9 | 293 | 3.2 | 12.9 | 0.00 | 0.00 | 0.00 | 75 | 1003.2 |
| 20260508054614 | 9 | 293 | 3.2 | 12.9 | 0.00 | 0.00 | 0.00 | 75 | 1003.3 |
| 20260508054103 | 9 | 293 | 3.2 | 12.9 | 0.00 | 0.00 | 0.00 | 75 | 1003.4 |
| 20260508053553 | 10 | 293 | 6.4 | 12.9 | 0.00 | 0.00 | 0.00 | 74 | 1003.3 |
| 20260508053046 | 10 | 293 | 3.2 | 12.9 | 0.00 | 0.00 | 0.00 | 74 | 1003.4 |
| 20260508052532 | 10 | 293 | 6.4 | 12.9 | 0.00 | 0.00 | 0.00 | 73 | 1003.5 |
| 20260508052023 | 10 | 293 | 3.2 | 9.7 | 0.00 | 0.00 | 0.00 | 73 | 1003.4 |
| 20260508051523 | 10 | 270 | 4.8 | 9.7 | 0.00 | 0.00 | 0.00 | 72 | 1003.6 |
| 20260508051002 | 10 | 270 | 3.2 | 12.9 | 0.00 | 0.00 | 0.00 | 71 | 1003.4 |
| 20260508050453 | 10 | 293 | 3.2 | 17.7 | 0.00 | 0.00 | 0.00 | 70 | 1003.5 |
| 20260508045943 | 10 | 270 | 6.4 | 17.7 | 0.00 | 0.00 | 0.00 | 67 | 1003.4 |
| 20260508045432 | 11 | 293 | 3.2 | 17.7 | 0.00 | 0.00 | 0.00 | 63 | 1003.5 |
| 20260508044412 | 10 | 248 | 6.4 | 17.7 | 0.00 | 0.00 | 0.00 | 64 | 1002.9 |
| 20260508043905 | 10 | 293 | 6.4 | 17.7 | 0.00 | 0.00 | 0.00 | 66 | 1002.8 |
| 20260508043352 | 10 | 293 | 6.4 | 20.9 | 0.00 | 0.00 | 0.00 | 68 | 1002.8 |
| 20260508042841 | 10 | 293 | 3.2 | 20.9 | 0.00 | 0.00 | 0.00 | 69 | 1002.7 |
| 20260508042331 | 10 | 248 | 6.4 | 17.7 | 0.00 | 0.00 | 0.00 | 69 | 1003.0 |
| 20260508041822 | 10 | 270 | 6.4 | 17.7 | 0.00 | 0.00 | 0.00 | 71 | 1002.8 |
| 20260508041313 | 10 | 248 | 4.8 | 17.7 | 0.00 | 0.00 | 0.00 | 72 | 1003.0 |
| 20260508040254 | 10 | 270 | 4.8 | 20.9 | 0.00 | 0.00 | 0.00 | 73 | 1003.1 |
| 20260508035741 | 10 | 248 | 4.8 | 20.9 | 0.00 | 0.00 | 0.00 | 73 | 1003.0 |
| 20260508033701 | 10 | 270 | 4.8 | 17.7 | 0.00 | 0.00 | 0.00 | 74 | 1003.0 |
| 20260508032641 | 10 | 293 | 4.8 | 17.7 | 0.00 | 0.00 | 0.00 | 75 | 1003.1 |
| 20260508032131 | 10 | 270 | 8.0 | 17.7 | 0.00 | 0.00 | 0.00 | 75 | 1003.2 |
| 20260508031621 | 10 | 248 | 4.8 | 17.7 | 0.00 | 0.00 | 0.00 | 75 | 1003.2 |
| 20260508030050 | 10 | 270 | 8.0 | 22.5 | 0.00 | 0.00 | 0.00 | 76 | 1003.0 |
| 20260508025539 | 10 | 293 | 6.4 | 17.7 | 0.00 | 0.00 | 2.67 | 77 | 1002.8 |
| 20260508025029 | 10 | 293 | 6.4 | 20.9 | 0.00 | 0.00 | 2.67 | 78 | 1002.8 |
| 20260508024010 | 10 | 293 | 11.3 | 25.7 | 0.00 | 0.00 | 2.67 | 78 | 1002.9 |
| 20260508023459 | 10 | 293 | 6.4 | 24.1 | 0.00 | 0.00 | 2.67 | 79 | 1002.8 |
| 20260508022949 | 10 | 270 | 8.0 | 24.1 | 0.00 | 0.00 | 2.67 | 80 | 1002.6 |
| 20260508022440 | 10 | 270 | 6.4 | 20.9 | 0.00 | 0.00 | 2.67 | 81 | 1002.7 |
| 20260508021929 | 10 | 270 | 3.2 | 17.7 | 0.00 | 0.00 | 2.67 | 81 | 1002.6 |
| 20260508020357 | 10 | 270 | 6.4 | 0.0 | 0.00 | 0.00 | 2.67 | 83 | 1002.3 |
| 20260508020156 | 10 | 270 | 6.4 | 0.0 | 0.00 | 0.00 | 2.67 | 83 | 1002.3 |
| 20260508015747 | 10 | 270 | 6.4 | 17.7 | 0.00 | 2.67 | 2.67 | 84 | 1002.4 |
| 20260508015234 | 10 | 270 | 6.4 | 17.7 | 0.00 | 2.67 | 2.67 | 84 | 1002.4 |
| 20260508014725 | 10 | 225 | 6.4 | 20.9 | 0.00 | 2.67 | 2.67 | 85 | 1002.5 |
| 20260508013704 | 10 | 293 | 6.4 | 25.7 | 0.00 | 2.67 | 2.67 | 84 | 1002.3 |
| 20260508013154 | 10 | 270 | 9.7 | 25.7 | 0.00 | 2.67 | 2.67 | 83 | 1002.2 |
| 20260508012135 | 10 | 293 | 8.0 | 22.5 | 0.00 | 2.67 | 2.67 | 85 | 1002.2 |
| 20260508011113 | 10 | 270 | 9.7 | 20.9 | 0.00 | 2.67 | 2.67 | 85 | 1002.2 |
| 20260508010604 | 10 | 270 | 8.0 | 17.7 | 0.00 | 2.67 | 2.67 | 85 | 1002.5 |
| 20260508010056 | 10 | 293 | 8.0 | 17.7 | 0.00 | 2.67 | 2.67 | 86 | 1002.4 |
| 20260508005542 | 10 | 248 | 9.7 | 14.5 | 0.00 | 2.67 | 2.67 | 86 | 1002.3 |
| 20260508005033 | 11 | 248 | 6.4 | 17.7 | 0.00 | 2.67 | 2.67 | 85 | 1002.3 |
| 20260508004524 | 11 | 270 | 6.4 | 17.7 | 0.00 | 2.67 | 2.67 | 85 | 1002.7 |
| 20260508004020 | 11 | 293 | 6.4 | 17.7 | 0.00 | 2.67 | 2.67 | 86 | 1002.5 |
| 20260508003505 | 11 | 270 | 6.4 | 17.7 | 0.00 | 2.67 | 2.67 | 84 | 1002.6 |
| 20260508002952 | 11 | 248 | 6.4 | 17.7 | 0.00 | 2.67 | 2.67 | 83 | 1002.7 |
| 20260508002443 | 11 | 203 | 9.7 | 17.7 | 0.00 | 2.67 | 2.67 | 82 | 1002.5 |
| 20260508001933 | 11 | 248 | 8.0 | 25.7 | 0.00 | 2.67 | 2.67 | 84 | 1002.8 |
| 20260508000911 | 11 | 248 | 6.4 | 14.5 | 0.00 | 2.67 | 2.67 | 86 | 1003.2 |
| 20260508000404 | 11 | 293 | 1.6 | 14.5 | 0.00 | 2.67 | 2.67 | 83 | 1003.0 |
| 20260507235342 | 12 | 293 | 6.4 | 12.9 | 0.00 | 2.67 | 2.67 | 81 | 1003.3 |
| 20260507233811 | 12 | 293 | 6.4 | 17.7 | 0.00 | 2.67 | 2.67 | 80 | 1003.2 |
| 20260507233302 | 12 | 270 | 3.2 | 17.7 | 0.00 | 2.67 | 2.67 | 80 | 1003.2 |
| 20260507232751 | 12 | 270 | 3.2 | 17.7 | 0.00 | 2.67 | 2.67 | 80 | 1003.1 |
| 20260507231731 | 12 | 225 | 3.2 | 11.3 | 0.00 | 2.67 | 2.67 | 80 | 1003.4 |
| 20260507231220 | 12 | 293 | 3.2 | 9.7 | 0.00 | 2.67 | 2.67 | 81 | 1003.3 |
| 20260507230201 | 12 | 270 | 3.2 | 9.7 | 0.00 | 2.67 | 2.67 | 81 | 1003.2 |
| 20260507225651 | 12 | 293 | 3.2 | 11.3 | 0.00 | 2.67 | 2.67 | 81 | 1003.3 |
| 20260507225141 | 12 | 270 | 3.2 | 14.5 | 0.00 | 2.67 | 2.67 | 81 | 1003.1 |
| 20260507224631 | 12 | 270 | 6.4 | 14.5 | 0.00 | 2.67 | 2.67 | 81 | 1003.2 |
| 20260507224120 | 12 | 270 | 3.2 | 14.5 | 0.00 | 2.67 | 2.67 | 82 | 1003.2 |
| 20260507223611 | 12 | 248 | 3.2 | 14.5 | 0.00 | 2.67 | 2.67 | 82 | 1003.2 |
| 20260507223100 | 12 | 293 | 4.8 | 14.5 | 0.00 | 2.67 | 2.67 | 83 | 1003.1 |
| 20260507222550 | 12 | 293 | 6.4 | 17.7 | 0.00 | 2.67 | 2.67 | 82 | 1002.8 |
| 20260507222042 | 12 | 293 | 3.2 | 17.7 | 0.00 | 2.67 | 2.67 | 82 | 1002.9 |
| 20260507221530 | 12 | 293 | 3.2 | 12.9 | 0.00 | 2.67 | 2.67 | 81 | 1002.8 |
| 20260507220510 | 12 | 248 | 4.8 | 14.5 | 0.00 | 2.67 | 2.67 | 79 | 1002.6 |
| 20260507215959 | 12 | 293 | 3.2 | 17.7 | 0.00 | 2.67 | 2.67 | 80 | 1002.5 |
| 20260507215449 | 12 | 293 | 4.8 | 17.7 | 0.00 | 2.67 | 2.67 | 80 | 1002.3 |
| 20260507214939 | 12 | 270 | 6.4 | 17.7 | 0.00 | 2.67 | 2.67 | 80 | 1001.7 |
| 20260507214429 | 12 | 270 | 4.8 | 14.5 | 0.00 | 2.67 | 2.67 | 81 | 1001.9 |
| 20260507213920 | 12 | 270 | 3.2 | 20.9 | 0.00 | 2.67 | 2.67 | 83 | 1001.9 |
| 20260507213409 | 12 | 270 | 8.0 | 20.9 | 0.00 | 2.67 | 2.67 | 82 | 1001.9 |
| 20260507212859 | 12 | 293 | 6.4 | 17.7 | 0.00 | 2.67 | 2.67 | 80 | 1001.9 |
| 20260507212349 | 12 | 270 | 4.8 | 17.7 | 0.00 | 2.67 | 2.67 | 80 | 1001.9 |
| 20260507211839 | 13 | 293 | 3.2 | 17.7 | 0.00 | 2.67 | 2.67 | 79 | 1001.8 |
| 20260507211328 | 13 | 270 | 3.2 | 17.7 | 0.00 | 2.67 | 2.67 | 79 | 1001.9 |
| 20260507210819 | 13 | 270 | 3.2 | 14.5 | 0.00 | 2.67 | 2.67 | 79 | 1002.0 |
| 20260507210309 | 13 | 270 | 6.4 | 14.5 | 0.00 | 2.67 | 2.67 | 78 | 1002.1 |
| 20260507205758 | 13 | 270 | 6.4 | 14.5 | 0.00 | 2.67 | 2.67 | 78 | 1002.2 |
| 20260507205249 | 13 | 293 | 6.4 | 14.5 | 0.00 | 2.67 | 2.67 | 78 | 1002.1 |
| 20260507204738 | 13 | 270 | 3.2 | 14.5 | 0.00 | 2.67 | 2.67 | 77 | 1002.1 |
| 20260507204227 | 13 | 248 | 6.4 | 14.5 | 0.00 | 2.67 | 2.67 | 77 | 1002.1 |
| 20260507203719 | 13 | 270 | 4.8 | 12.9 | 0.00 | 2.67 | 2.67 | 76 | 1002.0 |
| 20260507203207 | 13 | 270 | 6.4 | 14.5 | 0.00 | 2.67 | 2.67 | 76 | 1001.8 |
| 20260507202658 | 13 | 270 | 6.4 | 14.5 | 0.00 | 2.67 | 2.67 | 76 | 1001.8 |
| 20260507202147 | 13 | 293 | 3.2 | 12.9 | 0.00 | 2.67 | 2.67 | 76 | 1001.8 |
| 20260507201128 | 13 | 293 | 3.2 | 14.5 | 0.00 | 2.67 | 2.67 | 75 | 1001.9 |
| 20260507200617 | 13 | 270 | 3.2 | 17.7 | 0.00 | 2.67 | 2.67 | 76 | 1001.5 |
| 20260507200110 | 13 | 270 | 3.2 | 24.1 | 0.00 | 2.67 | 2.67 | 75 | 1001.3 |
| 20260507195557 | 13 | 270 | 6.4 | 24.1 | 0.00 | 2.67 | 2.67 | 74 | 1001.2 |
| 20260507195046 | 13 | 270 | 3.2 | 17.7 | 0.00 | 2.67 | 2.67 | 75 | 1001.1 |
| 20260507194537 | 13 | 270 | 6.4 | 17.7 | 0.00 | 2.67 | 2.67 | 74 | 1001.0 |
| 20260507194026 | 13 | 270 | 6.4 | 14.5 | 0.00 | 2.67 | 2.67 | 74 | 1000.5 |
| 20260507193011 | 13 | 270 | 6.4 | 14.5 | 0.00 | 2.67 | 2.67 | 73 | 1000.5 |
| 20260507192455 | 13 | 270 | 6.4 | 12.9 | 0.00 | 2.67 | 2.67 | 73 | 1000.3 |
| 20260507191438 | 14 | 293 | 11.3 | 17.7 | 0.00 | 2.67 | 2.67 | 71 | 999.8 |
| 20260507190926 | 14 | 293 | 6.4 | 20.9 | 0.00 | 2.67 | 2.67 | 72 | 999.8 |
| 20260507185905 | 14 | 293 | 6.4 | 14.5 | 0.00 | 2.67 | 2.67 | 72 | 1000.3 |
| 20260507184334 | 14 | 270 | 3.2 | 12.9 | 0.00 | 2.67 | 2.67 | 70 | 1000.9 |
| 20260507183824 | 14 | 293 | 6.4 | 25.7 | 0.00 | 2.67 | 2.67 | 70 | 1001.6 |
| 20260507182805 | 14 | 293 | 4.8 | 12.9 | 0.00 | 2.67 | 2.67 | 69 | 1002.2 |
| 20260507181742 | 14 | 225 | 6.4 | 12.9 | 0.00 | 2.67 | 2.67 | 69 | 1002.5 |
| 20260507181231 | 14 | 293 | 4.8 | 12.9 | 0.00 | 2.67 | 2.67 | 70 | 1002.4 |
| 20260507180724 | 14 | 293 | 4.8 | 12.9 | 0.00 | 2.67 | 2.67 | 69 | 1002.2 |
| 20260507180214 | 14 | 270 | 4.8 | 11.3 | 0.00 | 2.67 | 2.67 | 70 | 1002.1 |
| 20260507175153 | 14 | 270 | 4.8 | 9.7 | 0.00 | 2.67 | 2.67 | 70 | 1002.8 |
| 20260507174134 | 14 | 293 | 3.2 | 11.3 | 0.00 | 2.67 | 2.67 | 70 | 1003.7 |
| 20260507173624 | 14 | 293 | 0.0 | 11.3 | 0.00 | 2.67 | 2.67 | 71 | 1003.7 |
| 20260507173114 | 14 | 293 | 6.4 | 11.3 | 0.00 | 2.67 | 2.67 | 71 | 1003.6 |
| 20260507172603 | 14 | 293 | 3.2 | 6.4 | 0.00 | 2.67 | 2.67 | 72 | 1003.5 |
| 20260507171543 | 13 | 270 | 3.2 | 11.3 | 0.00 | 2.67 | 2.67 | 72 | 1003.2 |
| 20260507171034 | 13 | 270 | 3.2 | 14.5 | 0.00 | 2.67 | 2.67 | 71 | 1003.4 |
| 20260507170522 | 13 | 293 | 6.4 | 17.7 | 0.00 | 2.67 | 2.67 | 71 | 1002.9 |
| 20260507170013 | 13 | 293 | 6.4 | 17.7 | 0.00 | 2.67 | 2.67 | 71 | 1002.2 |